Find Starlink 11103

NORAD ID: 59718 Int'l Des: 2024-088 Owner: SPXS Country: US Constellation: starlink operational
又名: STARLINK-11103 [DTC] celestrak
LEOCIRCULAR

当前视图

正在加载3D地球...

About Starlink 11103

Starlink 11103 (NORAD 59718) is a starlink constellation satellite (v2 mini d2c) launched May 10, 2024 by SPXS of US. It operates in LEO, CIRCULAR orbit with a mass of 960.00 kg.

即将过境

Passes for default location (London). Set your location on the main map for personalized predictions.

高度历史

Loading altitude history...

两行轨道根数

1 59718U 24088L 26262.93616907 -.00000332 00000-0 21147-5 0 9990
2 59718 53.1584 88.4955 0000945 134.5190 225.5905 15.69711492136786
Epoch: Sep 19, 2026 • Age: 28 hours

当前状态

高度 359.6 km
远地点 / 近地点 N/A
速度 7.70 km/s
星下点 20.15°N, 152.58°W
发射日期 May 10, 2024
运行时间 2.3 years
类型 internet

技术详情

分类 Payload
质量 960.00 kg
干质量 910.00 kg
长度 0.30 m
跨度 29.00 m
形状 ? Box + pan
制造商 SPXS
平台类型 Starlink V2MD
阶段状态 In Orbit
所有者/国家 SPXS/US

Most Searched